This is the latest recevied weather packets stored in our database for station/object ON5MM-5. If no packets are shown the sender has not sent any weather packets the latest 10 day(s).
| Time | Temp. | Humidity | Pressure | Rain* | Wind** | Luminosity | Snow |
|---|---|---|---|---|---|---|---|
| 1777447802 | 12.78° C | 37% | 1025 hPa | 0 mm | 1.79 m/s, ° | - | - |
| 1777447502 | 12.22° C | 38% | 1024.9 hPa | 0 mm | 1.79 m/s, ° | - | - |
| 1777447202 | 12.22° C | 37% | 1024.9 hPa | 0 mm | 1.79 m/s, ° | - | - |
| 1777446902 | 12.22° C | 37% | 1024.8 hPa | 0 mm | 1.79 m/s, ° | - | - |
| 1777446602 | 11.67° C | 38% | 1024.9 hPa | 0 mm | 1.79 m/s, ° | - | - |
| 1777446303 | 11.67° C | 38% | 1024.9 hPa | 0 mm | 1.79 m/s, ° | - | - |
| 1777446003 | 11.67° C | 39% | 1024.9 hPa | 0 mm | 1.34 m/s, ° | - | - |
| 1777445702 | 11.11° C | 40% | 1024.8 hPa | 0 mm | 1.79 m/s, ° | - | - |
| 1777444802 | 10.56° C | 42% | 1024.7 hPa | 0 mm | 1.34 m/s, ° | - | - |
| 1777444502 | 10.56° C | 42% | 1024.7 hPa | 0 mm | 1.79 m/s, ° | - | - |
| 1777444202 | 10° C | 42% | 1024.7 hPa | 0 mm | 1.79 m/s, ° | - | - |
| 1777443902 | 10° C | 42% | 1024.7 hPa | 0 mm | 1.79 m/s, ° | - | - |
| 1777443602 | 10° C | 43% | 1024.6 hPa | 0 mm | 1.79 m/s, ° | - | - |
| 1777443302 | 9.44° C | 43% | 1024.5 hPa | 0 mm | 1.34 m/s, ° | - | - |
| 1777443003 | 8.89° C | 44% | 1024.5 hPa | 0 mm | 2.24 m/s, ° | - | - |
| 1777442702 | 8.89° C | 44% | 1024.4 hPa | 0 mm | 1.79 m/s, ° | - | - |
| 1777442402 | 8.89° C | 45% | 1024.3 hPa | 0 mm | 1.79 m/s, ° | - | - |
| 1777442102 | 8.89° C | 45% | 1024.3 hPa | 0 mm | 1.79 m/s, ° | - | - |
| 1777441802 | 8.33° C | 45% | 1024.2 hPa | 0 mm | 1.34 m/s, ° | - | - |
| 1777441502 | 8.33° C | 46% | 1024.2 hPa | 0 mm | 1.34 m/s, ° | - | - |
| 1777441202 | 8.33° C | 46% | 1024.2 hPa | 0 mm | 1.34 m/s, ° | - | - |
| 1777440902 | 7.78° C | 47% | 1024.1 hPa | 0 mm | 1.34 m/s, ° | - | - |
| 1777440603 | 7.78° C | 48% | 1024.2 hPa | 0 mm | 0.89 m/s, ° | - | - |
| 1777440301 | 7.22° C | 48% | 1024.2 hPa | 0 mm | 1.34 m/s, ° | - | - |
| 1777440002 | 7.22° C | 49% | 1024.3 hPa | 0 mm | 0.89 m/s, ° | - | - |
* Rain latest hour (hover to see other rain measurements)
** Current wind speed in m/s (hover to see current wind gust speed)